Wind_Speed
13 15 18 21 22 22 24 23 24 25 26 27 28 29 29 30 30 31 30 30 30 31 32 33 32 31 31 32 33 35 35 35 37 37 36 38 38 39 38 37 36 36 36
15 15 18 20 21 23 23 25 25 27 30 30 31 32 33 35 35 35 35 35 35 37 37 37 37 37 37 37 39 40 41 42 43 43 42 42 42 43 44 43 43 42 42
16 17 17 20 22 22 23 26 28 29 31 32 33 34 38 39 39 40 40 39 39 40 41 42 42 41 41 42 42 44 45 46 48 48 47 47 47 47 48 49 47 48 46
17 18 17 18 19 22 24 26 29 32 34 35 36 37 38 40 41 43 44 44 44 45 45 45 44 44 44 45 46 47 49 49 51 52 52 52 51 51 52 52 51 51 50
20 20 19 19 18 19 23 26 30 33 36 38 39 40 42 42 43 45 46 47 47 49 49 48 48 48 48 49 50 51 52 52 52 51 52 54 55 56 55 55 55 54 54
22 23 23 22 22 22 22 23 27 32 36 39 40 41 42 43 44 45 47 48 49 50 50 49 50 51 52 54 56 56 56 56 55 54 54 57 58 58 57 57 57 60 61
25 25 26 27 28 28 27 26 26 28 31 34 38 40 43 44 44 46 48 49 50 50 51 52 54 55 56 58 59 59 59 59 61 62 58 59 61 59 56 59 62 65 67
30 28 29 30 31 32 31 31 31 32 31 32 36 39 39 42 45 48 48 49 50 52 57 59 58 58 58 58 59 60 62 63 64 67 68 59 61 60 63 64 68 71 74
33 32 32 34 34 34 34 35 36 36 37 36 38 38 39 40 41 45 48 50 53 55 56 59 63 66 67 70 72 72 72 73 72 68 59 60 62 65 68 71 75 77 78
36 36 36 37 37 38 37 37 39 39 40 41 41 43 43 43 41 39 40 44 49 52 54 55 57 59 60 60 59 57 56 57 56 56 59 62 64 68 74 77 81 82 80
39 39 40 40 41 41 41 42 42 42 43 42 42 43 43 44 46 48 45 44 46 47 50 51 53 55 56 55 54 55 57 57 55 57 59 65 71 75 78 83 85 80 61
42 42 43 43 44 44 44 46 46 45 45 45 44 44 46 47 50 51 54 54 54 48 49 48 49 51 52 53 53 55 57 56 57 60 65 70 74 79 83 85 77 60 49
46 44 45 45 47 47 48 49 48 48 46 46 45 45 47 50 53 54 56 55 56 55 54 47 48 52 50 49 51 54 54 55 61 65 70 74 79 82 82 77 63 53 51
48 49 47 47 48 50 49 51 51 50 49 47 46 47 49 53 55 57 59 57 55 55 55 51 49 49 49 52 54 54 56 59 64 70 74 78 81 83 77 63 57 54 53
50 51 48 50 51 51 52 52 52 53 51 50 49 49 54 54 57 60 60 57 58 58 51 46 47 47 48 50 51 56 57 63 70 74 77 80 82 76 60 51 45 45 48
45 46 47 50 54 56 52 54 56 55 53 53 52 55 56 59 64 63 60 57 53 50 49 48 47 49 50 51 55 57 61 68 74 75 76 81 78 63 49 44 43 42 42
48 50 53 56 55 55 56 56 57 55 53 53 56 58 59 62 66 58 58 54 52 51 48 47 48 52 54 53 56 61 67 70 73 74 79 80 60 49 45 47 46 45 46
51 51 53 54 56 57 57 57 56 53 54 57 56 57 60 64 65 57 56 54 51 49 52 48 49 52 54 57 59 65 67 69 68 75 77 62 50 43 48 49 47 44 46
44 47 53 54 54 56 55 57 56 56 57 59 61 62 64 66 61 58 57 51 48 52 52 49 50 53 55 59 62 64 64 67 70 73 63 49 45 48 51 47 39 39 44
44 46 50 52 56 57 56 56 57 59 60 63 64 63 63 57 56 56 54 47 47 53 48 49 51 53 57 59 60 62 64 68 70 61 49 47 51 46 43 39 39 43 47
46 48 52 55 56 55 55 57 60 62 62 64 66 65 62 57 56 54 49 46 50 46 46 48 50 53 55 57 59 61 63 66 56 48 45 42 36 32 34 39 44 42 36
50 51 53 53 53 51 51 53 59 62 65 62 62 61 60 55 54 47 45 48 50 42 45 49 51 52 54 55 59 61 60 60 47 43 41 35 33 36 40 47 44 37 31
50 50 51 53 53 52 51 52 58 60 59 58 57 57 62 56 49 45 49 45 41 44 46 48 50 52 53 56 56 58 56 52 43 37 36 33 38 43 49 48 36 33 30
52 53 53 53 53 51 52 56 55 53 55 55 57 62 55 58 48 48 39 37 41 43 45 48 51 53 53 52 52 51 48 42 36 36 32 34 38 38 37 34 29 28 26
56 54 55 54 54 49 46 48 50 50 56 56 65 61 66 52 48 45 36 40 42 44 45 46 47 48 45 43 43 42 41 39 36 31 29 34 27 23 20 13 11 15 20
58 57 54 53 52 44 47 50 54 54 60 66 70 72 59 49 52 38 38 41 42 43 43 44 42 43 41 41 41 38 38 37 33 23 23 21 19 18 16 11 6 9 17
Wind_Direction
292 285 281 281 282 279 276 274 267 266 266 267 267 267 269 270 270 270 273 275 277 278 280 283 283 284 283 282 283 286 288 288 287 287 287 290 293 293 291 292 289 282 277
303 294 288 283 280 276 273 275 273 266 266 266 269 272 272 273 274 275 276 276 278 280 283 284 284 284 285 286 288 290 290 288 287 288 290 291 291 292 292 293 290 290 287
301 300 290 286 285 282 277 272 272 273 273 272 272 272 273 275 275 275 277 279 280 282 284 285 285 284 283 285 289 291 291 291 292 290 289 289 289 290 291 290 289 289 289
294 295 295 293 292 289 284 279 277 276 277 277 277 276 276 276 276 276 278 279 280 281 282 281 281 282 284 286 290 291 289 288 288 289 288 289 289 288 287 286 286 285 284
289 291 288 290 292 291 288 285 280 277 277 278 278 279 279 279 278 278 278 280 282 282 283 283 284 282 282 286 285 284 285 287 287 287 287 287 285 284 284 285 284 282 282
279 282 285 285 287 286 287 289 288 283 279 278 277 277 276 276 276 276 276 278 279 279 280 278 278 278 278 280 282 283 284 285 284 283 285 284 281 280 280 281 281 282 282
273 274 279 281 283 283 284 286 287 286 285 282 279 275 274 275 276 275 275 276 278 280 279 279 278 279 280 281 283 284 285 287 285 283 284 285 284 283 282 282 282 283 285
273 276 276 277 278 282 284 284 285 288 291 290 289 287 283 280 278 276 277 276 276 274 275 280 283 285 284 283 282 280 280 279 281 283 280 281 282 280 279 282 284 284 284
275 276 275 273 275 279 283 283 284 287 290 293 295 293 289 288 283 282 283 283 283 280 277 274 275 275 276 277 279 280 280 278 279 280 281 283 282 281 283 284 286 288 286
271 275 276 276 278 279 281 283 284 286 289 292 296 300 299 296 292 285 285 284 283 286 285 285 284 283 284 286 286 285 283 281 285 285 283 283 284 285 287 290 289 288 288
271 273 276 279 281 283 284 287 284 285 287 289 292 296 297 296 296 295 295 290 283 279 279 282 286 286 287 287 287 285 284 286 287 285 286 286 289 289 289 290 290 290 289
269 273 275 278 279 282 281 286 284 286 288 289 292 292 294 297 299 298 296 297 296 287 283 284 286 287 288 288 288 287 287 288 290 289 289 289 291 293 293 293 294 291 281
269 269 272 275 277 278 283 286 285 287 289 289 291 292 298 299 299 302 303 301 296 291 288 290 291 292 292 290 287 284 286 287 289 292 292 294 295 295 295 295 291 283 279
273 272 271 274 275 278 282 283 285 287 288 289 289 294 298 297 302 304 303 298 294 291 291 293 294 294 292 291 289 288 290 292 294 295 297 297 294 295 296 291 282 278 273
269 273 275 276 278 280 282 284 285 288 288 289 293 298 298 300 303 304 305 295 292 290 290 294 295 294 290 289 291 293 291 293 297 299 298 295 297 298 294 286 282 273 269
270 271 273 277 280 282 284 284 287 291 292 295 297 297 301 303 306 308 303 298 296 295 297 300 300 297 294 295 299 299 296 296 299 300 295 295 298 296 287 283 274 271 275
271 274 275 276 279 282 286 289 288 291 292 295 295 297 301 307 308 303 301 299 298 299 302 304 299 298 295 296 297 299 300 300 300 297 296 297 296 287 283 281 276 275 272
274 277 279 279 281 283 285 285 290 290 292 292 294 299 304 310 310 300 303 301 299 298 303 301 298 300 300 299 299 300 301 301 300 297 296 298 291 284 283 282 277 275 272
273 274 276 280 282 285 286 289 291 294 294 295 297 301 306 309 306 302 304 302 298 300 298 298 302 303 303 301 302 303 304 302 300 298 302 296 286 283 278 276 275 274 271
271 272 273 275 278 284 287 290 291 293 295 296 301 306 307 309 306 300 303 301 299 299 297 302 305 305 303 303 308 305 307 305 302 304 299 290 287 282 276 271 273 270 268
268 268 270 273 278 284 288 290 292 295 296 298 304 308 306 305 302 300 302 299 300 295 299 306 307 306 308 308 309 308 309 305 305 296 292 292 282 280 281 278 276 269 265
266 268 271 275 278 281 285 290 292 296 298 301 301 304 309 302 301 300 300 299 295 297 305 308 307 307 309 311 311 310 307 306 301 295 290 283 279 282 289 287 281 267 257
265 269 273 276 281 285 291 292 293 295 297 299 298 300 306 300 300 300 298 294 299 305 306 307 309 311 313 313 312 310 309 310 301 298 293 284 285 289 287 288 282 253 248
265 269 275 279 283 289 288 287 289 292 297 297 299 305 305 305 298 297 291 299 301 305 308 313 315 314 314 312 314 312 314 311 307 303 288 295 295 296 299 294 267 243 234
266 271 275 280 284 286 282 284 284 288 293 294 298 299 301 298 293 289 296 296 301 305 308 311 313 314 315 316 316 317 317 316 310 295 291 298 300 304 302 286 236 222 204
267 272 277 282 287 284 284 286 283 288 290 295 294 296 298 291 287 287 291 293 299 303 308 312 316 319 319 322 324 327 326 317 303 297 300 300 292 296 280 275 247 210 186
Height
5846 5844 5844 5844 5843 5844 5844 5845 5845 5845 5846 5845 5844 5843 5843 5842 5840 5839 5838 5837 5836 5835 5833 5831 5830 5829 5828 5826 5825 5823 5822 5820 5818 5816 5814 5812 5810 5808 5807 5805 5804 5803 5802
5844 5842 5840 5840 5839 5840 5840 5840 5841 5841 5840 5840 5840 5839 5838 5836 5835 5833 5832 5831 5830 5828 5827 5825 5823 5822 5820 5818 5817 5815 5813 5810 5809 5807 5805 5802 5800 5798 5796 5794 5792 5790 5789
5841 5839 5837 5836 5835 5835 5836 5835 5835 5835 5835 5834 5833 5833 5831 5830 5829 5827 5825 5824 5822 5820 5819 5817 5816 5815 5813 5811 5808 5806 5803 5801 5798 5796 5794 5791 5789 5786 5784 5782 5780 5779 5777
5837 5836 5833 5832 5831 5830 5830 5830 5829 5829 5828 5828 5827 5825 5824 5823 5821 5819 5817 5816 5815 5813 5811 5809 5807 5805 5803 5801 5799 5796 5793 5791 5788 5785 5782 5779 5776 5774 5771 5770 5768 5766 5764
5831 5831 5830 5829 5827 5825 5824 5823 5822 5821 5821 5820 5820 5818 5816 5815 5813 5811 5809 5807 5806 5804 5801 5799 5797 5795 5793 5791 5788 5785 5781 5778 5775 5772 5769 5766 5763 5760 5758 5755 5752 5751 5750
5825 5824 5825 5824 5823 5821 5820 5818 5817 5815 5813 5812 5811 5810 5808 5806 5805 5803 5800 5798 5796 5793 5792 5789 5786 5783 5780 5777 5774 5771 5768 5765 5762 5759 5756 5753 5751 5748 5744 5742 5740 5737 5735
5818 5818 5818 5817 5816 5815 5813 5812 5811 5808 5807 5805 5803 5801 5799 5797 5796 5793 5791 5788 5786 5782 5780 5777 5773 5769 5767 5763 5759 5756 5752 5749 5746 5743 5741 5738 5735 5732 5729 5727 5723 5721 5717
5810 5811 5810 5809 5809 5807 5806 5804 5802 5800 5799 5797 5794 5791 5790 5788 5785 5782 5779 5777 5774 5770 5767 5763 5759 5755 5752 5748 5744 5740 5736 5732 5730 5728 5724 5721 5719 5717 5713 5710 5707 5703 5699
5804 5803 5802 5802 5801 5800 5798 5797 5794 5792 5789 5787 5784 5782 5779 5777 5775 5772 5768 5765 5760 5756 5753 5748 5745 5741 5736 5732 5729 5726 5722 5718 5715 5712 5708 5705 5703 5699 5697 5692 5687 5682 5678
5794 5794 5793 5792 5791 5790 5789 5788 5785 5783 5781 5779 5776 5772 5767 5764 5762 5763 5760 5755 5750 5745 5739 5734 5729 5725 5719 5716 5712 5708 5704 5701 5698 5695 5692 5689 5686 5681 5676 5672 5666 5660 5654
5785 5783 5783 5783 5782 5780 5779 5777 5775 5773 5771 5769 5766 5763 5759 5754 5750 5745 5744 5745 5739 5733 5727 5722 5715 5709 5704 5700 5697 5693 5689 5686 5684 5681 5676 5672 5667 5661 5655 5649 5643 5637 5632
5774 5775 5774 5773 5772 5771 5769 5768 5765 5764 5761 5758 5756 5753 5749 5745 5740 5735 5729 5724 5721 5721 5714 5710 5703 5696 5691 5687 5682 5678 5675 5672 5668 5665 5661 5654 5647 5640 5634 5628 5622 5619 5618
5764 5763 5763 5763 5761 5760 5759 5757 5755 5753 5751 5748 5745 5742 5738 5733 5729 5723 5718 5712 5705 5702 5698 5697 5690 5682 5677 5673 5670 5665 5662 5659 5654 5649 5643 5636 5629 5621 5613 5606 5603 5603 5603
5753 5753 5753 5751 5749 5748 5747 5746 5744 5742 5740 5736 5733 5730 5726 5721 5715 5710 5704 5698 5693 5689 5685 5680 5675 5667 5663 5658 5654 5650 5647 5643 5638 5632 5626 5619 5611 5600 5592 5586 5585 5585 5588
5741 5742 5741 5739 5738 5737 5736 5735 5732 5731 5728 5725 5722 5719 5714 5709 5704 5698 5690 5683 5678 5674 5675 5671 5662 5655 5651 5647 5642 5638 5633 5628 5622 5615 5608 5599 5589 5580 5574 5572 5571 5571 5572
5730 5730 5730 5729 5727 5725 5725 5723 5721 5719 5717 5714 5711 5707 5702 5697 5691 5684 5676 5670 5665 5662 5658 5654 5647 5641 5637 5633 5628 5622 5618 5612 5605 5597 5588 5579 5569 5563 5560 5559 5559 5559 5560
5719 5719 5717 5716 5715 5714 5713 5712 5711 5708 5706 5703 5700 5695 5690 5684 5678 5670 5664 5659 5653 5649 5646 5641 5634 5628 5622 5617 5613 5608 5602 5595 5587 5579 5569 5559 5552 5548 5547 5545 5545 5546 5547
5707 5706 5705 5704 5703 5701 5700 5699 5697 5696 5694 5691 5686 5682 5677 5671 5665 5658 5652 5647 5642 5637 5633 5630 5623 5617 5611 5605 5600 5594 5587 5578 5571 5560 5550 5543 5538 5535 5532 5530 5530 5532 5532
5695 5694 5693 5692 5690 5689 5688 5687 5686 5684 5681 5677 5673 5669 5664 5657 5651 5645 5640 5635 5630 5625 5621 5617 5612 5604 5598 5592 5587 5578 5570 5562 5552 5543 5535 5530 5527 5524 5520 5519 5518 5519 5519
5685 5685 5683 5682 5680 5679 5677 5675 5674 5671 5667 5662 5659 5656 5651 5644 5639 5632 5628 5623 5618 5614 5610 5605 5598 5592 5585 5578 5571 5565 5555 5544 5535 5526 5521 5518 5515 5512 5510 5509 5507 5507 5506
5676 5675 5673 5671 5669 5668 5666 5664 5661 5658 5654 5650 5647 5643 5637 5631 5625 5620 5615 5610 5607 5603 5598 5592 5586 5580 5571 5565 5556 5549 5540 5530 5521 5515 5510 5507 5503 5502 5500 5498 5495 5494 5497
5664 5663 5660 5659 5657 5656 5654 5652 5648 5645 5641 5637 5634 5630 5623 5618 5612 5606 5601 5599 5596 5592 5586 5580 5573 5568 5558 5552 5544 5536 5527 5517 5510 5505 5499 5497 5495 5492 5490 5486 5484 5484 5487
5651 5650 5649 5647 5646 5644 5643 5640 5636 5632 5628 5625 5622 5616 5610 5605 5599 5593 5590 5587 5584 5580 5575 5569 5562 5555 5547 5540 5533 5525 5515 5506 5499 5494 5490 5487 5485 5481 5476 5472 5471 5473 5477
5640 5638 5636 5635 5633 5632 5630 5627 5623 5620 5617 5613 5608 5604 5599 5594 5587 5583 5579 5577 5574 5568 5563 5556 5549 5543 5537 5530 5522 5514 5505 5497 5490 5486 5483 5480 5475 5470 5465 5461 5462 5465 5470
5625 5625 5623 5622 5620 5619 5617 5613 5611 5609 5605 5600 5596 5591 5587 5580 5576 5573 5569 5566 5563 5558 5553 5546 5540 5534 5528 5521 5514 5506 5497 5490 5484 5480 5476 5473 5468 5463 5461 5460 5458 5460 5466
5611 5611 5611 5608 5607 5605 5603 5601 5598 5596 5592 5587 5584 5580 5574 5570 5566 5562 5560 5557 5553 5548 5542 5537 5531 5526 5522 5515 5507 5500 5493 5486 5481 5475 5470 5467 5464 5461 5460 5460 5458 5460 5464